Weather in Marawi

Philippines     8°00′10″N   124°18′18″E
temp.,
°C
wind,
m/s
gust,
m/s
humid.,
%
clouds,
%
prec.,
mm/h
press.,
hPa
HPBL,
m
15 april, thu
thu1523:00+21nne1190100 0.0 101287
02:00+20e0192100 0.0 101078
05:00+20se0190100 0.0 101064
08:00+23ssw0181100 0.0 1012264
11:00+26nnw127163 0.8 10111006
14:00+25nnw2381100 4.4 1009774
17:00+23n1290100 3.6 1009191
20:00+21n119592 5.9 101228
16 april, fri
fri1623:00+21nne0194100 0.9 101244
02:00+20nne1193100 1.3 101188
05:00+20e1193100 0.0 101178
08:00+23nnw1181100 0.0 1012360
11:00+25nnw2272100 0.3 1011819
14:00+26n346956 1.4 10091163
17:00+24n2383100 0.9 1009406
20:00+21n1192100 0.9 101295
17 april, sat
sat1723:00+21ne019180 0.0 101288
02:00+20n119275 0.0 101098
05:00+20ene0194100 0.0 101082
08:00+23n1283100 0.0 1012412
11:00+24nnw2276100 0.0 1011684
14:00+25nnw3466100 0.1 10091060
17:00+23n2378100 0.1 1009288
20:00+21ene0187100 0.1 1011101
18 april, sun
sun1823:00+21se1184100 0.0 101192
02:00+21ssw1284100 0.0 1008140
05:00+21ssw1285100 0.0 1009146
08:00+22nnw0182100 0.1 1011209
11:00+23nnw1276100 0.0 1009613
14:00+23nw2379100 0.4 1008533
17:00+22sw2384100 0.4 1007176
20:00+21sw2480100 0.6 1009149
19 april, mon
mon1923:00+21wsw238899 0.0 1009175
02:00+20ssw2391100 0.0 1008185
05:00+21sw2491100 0.0 1008174
08:00+24sw3774100 0.0 1010834
11:00+26sw3762100 0.2 10091225
14:00+23wsw3686100 3.6 1008392
17:00+22sw2590100 2.2 1008274
20:00+21ssw2590100 2.3 1010214